Hourly Data Report for August 15, 2020

LYTTON RCS
BRITISH COLUMBIA
Current Station Operator: ECCC - MSC

50°13'28.000" N
121°34'55.000" W
225.00 m
1114746
71765
VLY

Download Data

Hourly Data (August 2020)
Hourly Data Report for August 15, 2020
TIME Temp Definition
°C
Dew Point Definition
°C
Rel Hum Definition
%
Wind Dir Definition
10's deg

Wind Spd Definition
km/h
Visibility Definition
km
Stn Press Definition
kPa
Hmdx Definition


Wind Chill Definition


Weather Definition


00:00 21.5 10.2 49 18 30   99.10     LegendNANA
01:00 20.5 10.1 51 18 25   99.15     LegendNANA
02:00 19.6 10.1 54 17 31   99.21     LegendNANA
03:00 19.1 10.0 56 16 22   99.24     LegendNANA
04:00 18.1 10.0 59 15 14   99.28     LegendNANA
05:00 16.8 9.8 63 13 4   99.31     LegendNANA
06:00 15.3 10.0 71 20 3   99.35     LegendNANA
07:00 15.3 10.4 73 19 5   99.36     LegendNANA
08:00 18.5 9.8 57 17 7   99.30     LegendNANA
09:00 21.7 9.5 46 17 11   99.20     LegendNANA
10:00 24.3 9.0 38 17 6   99.11 25   LegendNANA
11:00 27.1 9.3 33 19 5   99.00 28   LegendNANA
12:00 30.8 8.9 26 17 12   98.85 32   LegendNANA
13:00 33.7 7.8 20 17 21   98.70 34   LegendNANA
14:00 34.6 7.7 19 19 21   98.56 35   LegendNANA
15:00 35.6 7.4 18 19 25   98.46 36   LegendNANA
16:00 35.8 6.3 16 19 23   98.41 36   LegendNANA
17:00 35.2 5.4 16 19 22   98.38 35   LegendNANA
18:00 32.3 5.6 19 19 17   98.37 32   LegendNANA
19:00 30.2 6.3 22 18 19   98.39 30   LegendNANA
20:00 27.9 7.5 28 17 22   98.44 28   LegendNANA
21:00 28.5 7.1 26 14 14   98.50 29   LegendNANA
22:00 26.4 7.3 30 15 9   98.55 27   LegendNANA
23:00 24.7 7.5 33 16 6   98.63 25   LegendNANA

Notes on Data Quality.

Legend

  • E = Estimated
  • M = Missing
  • NA = Not Available*
  • [empty] = Indicates an unobserved value
Date modified: